Flag for France Weather past 2 weeks in Saint-Étienne, France

Now
54 °F

Clear.


Feels Like: 54 °F
Forecast: 34 / 54 °F
Wind: No wind

Location: St-Etienne Boutheon


UV Index: 3 (Moderate)

Visibility: N/A


Pressure: 30.07 "Hg

Humidity: 41%

Dew point: 30 °F

Location of Saint-ÉtienneLocation

Historic Weather in Saint-Étienne

°F

Saint-Étienne temperature yesterday

Maximum temperature yesterday: 59 °F (at 3:30 PM)
Minimum temperature yesterday: 30 °F (at 6:30 AM)
Average temperature yesterday: 45 °F

Past Weeks' High & Low Weather Summary

 TemperatureHumidityPressure
High79 °F (Apr 7, 3:30 PM)100% (Apr 6, 5:00 AM)30.33 "Hg (Apr 6, 5:00 AM)
Low30 °F (Apr 16, 6:30 AM)14% (Apr 17, 5:30 PM)29.59 "Hg (Apr 3, 5:30 AM)
Average53 °F63%30.06 "Hg
* Reported Apr 2 9:00 PM — Apr 17 9:30 PM, Saint-Étienne, Weather by CustomWeather, © 2014

Note: Actual official high and low records may vary slightly from our data, if they occured in-between our weather recording intervals... More about our weather records

Advertising

Historic Weather Conditions — Data for Previous 24 hours

 ConditionsComfort  
Time TempWeatherWind HumidityBarometerVisibility
9:30 PM
Apr 17
55 °FClear.6 mph41%30.04 "HgN/A
9:00 PM57 °FClear.7 mph39%30.04 "HgN/A
8:30 PM61 °FClear.7 mph36%30.04 "HgN/A
8:00 PM63 °FClear.7 mph34%30.04 "HgN/A
7:00 PM64 °FClear.6 mph28%30.04 "HgN/A
6:30 PM66 °FClear.7 mph24%30.04 "HgN/A
6:00 PM66 °FPassing clouds.6 mph19%30.04 "HgN/A
5:30 PM66 °FPassing clouds.6 mph14%30.04 "HgN/A
5:00 PM66 °FPassing clouds.6 mph24%30.04 "HgN/A
4:30 PM66 °FPassing clouds.6 mph24%30.04 "HgN/A
4:00 PM64 °FPassing clouds.5 mph24%30.07 "HgN/A
3:30 PM64 °FPassing clouds.5 mph26%30.07 "HgN/A
3:00 PM63 °FPassing clouds.7 mph25%30.07 "HgN/A
2:30 PM61 °FSunny.3 mph25%30.09 "Hg10 mi
2:00 PM61 °FPassing clouds.5 mph23%30.09 "HgN/A
1:30 PM59 °FSunny.3 mph27%30.09 "Hg10 mi
1:00 PM59 °FPassing clouds.5 mph29%30.12 "HgN/A
12:30 PM57 °FSunny.3 mph36%30.12 "Hg10 mi
12:00 PM55 °FPassing clouds.5 mph41%30.12 "HgN/A
11:30 AM55 °FSunny.3 mph38%30.12 "Hg10 mi
11:00 AM54 °FSunny.2 mph44%30.12 "Hg10 mi
10:30 AM50 °FSunny.2 mph50%30.15 "Hg10 mi
10:00 AM48 °FSunny.1 mph54%30.15 "Hg10 mi
9:30 AM45 °FSunny.3 mph57%30.15 "Hg10 mi
9:00 AM43 °FSunny.No wind61%30.15 "Hg10 mi
8:30 AM39 °FSunny.No wind70%30.15 "Hg10 mi
8:00 AM36 °FSunny.No wind75%30.15 "Hg10 mi
7:30 AM32 °FClear.2 mph80%30.15 "Hg10 mi
7:00 AM32 °FClear.No wind80%30.15 "Hg10 mi
6:30 AM32 °FClear.No wind80%30.15 "Hg10 mi
6:00 AM34 °FClear.No wind81%30.15 "Hg10 mi
5:30 AM34 °FClear.No wind81%30.15 "HgN/A
5:00 AM34 °FClear.No wind81%30.15 "HgN/A
4:30 AM34 °FClear.1 mph75%30.15 "HgN/A
4:00 AM36 °FClear.1 mph75%30.18 "HgN/A
3:30 AM36 °FClear.No wind75%30.15 "HgN/A
3:00 AM36 °FClear.No wind75%30.15 "HgN/A
2:30 AM37 °FClear.No wind70%30.18 "HgN/A
2:00 AM37 °FClear.No wind70%30.18 "HgN/A
1:30 AM39 °FClear.No wind70%30.18 "HgN/A
1:00 AM39 °FClear.2 mph65%30.18 "HgN/A
12:30 AM39 °FClear.2 mph70%30.18 "HgN/A
12:00 AM41 °FClear.1 mph66%30.18 "HgN/A
11:30 PM
Apr 16
43 °FClear.1 mph61%30.18 "HgN/A
11:00 PM43 °FClear.1 mph66%30.18 "HgN/A
10:30 PM46 °FClear.2 mph53%30.18 "HgN/A
10:00 PM48 °FClear.No wind54%30.18 "HgN/A
Weather by CustomWeather, © 2014

See weather overview